sat.trackr.live / text

‹ back to catalog

STARLINK-2448

NORAD 48111 · 2021-027V

PAYLOAD ACTIVE UNKNOWN

§ Identity

Operator
Country
US
Launch date
2021-04-07
Launch site
AFETR
Launch vehicle
Mass (kg)
RCS (m²)

Purposes: comms

External: N2YO · Heavens-Above · Gunter

§ Orbital elements

Epoch: 2026-05-25T01:13:12.607104Z

Period
93.58 min
Inclination
53.1557°
Eccentricity
0.0006641
Mean motion
15.38787764 rev/d
Perigee alt
445.2 km
Apogee alt
454.2 km
Semi-major
6,827.8 km
B*
1.1403e-3
RAAN
157.5772°
Arg perigee
10.7248°
Mean anomaly
349.3897°
Rev number
28,439

§ Raw data

STARLINK-24481 48111U 21027V   26145.05084036  .00044272  00000+0  11403-2 0  99902 48111  53.1557 157.5772 0006641  10.7248 349.3897 15.38787764284391

JSON: /api/v1/satellites/48111 · /tle

For live sub-satellite position, see the globe view (requires WebGL).

§ Visibility from observer

Set your observer location to see the next 7 days of passes ≥ 10°. The values pass through the URL so the page stays shareable.

No JS? Fill the form by hand. The geolocation button needs JavaScript.